Location: Augustenthal
(51.7167°N, 10.2833°E)
Time: 08:20:43
(UTC+00:00)

Cosmos 1908 Rocket - Pass Details

Date: 18 May 2021
Orbit: 606 x 632 km, 82.5° (Epoch: 16 June)

Event Time Altitude Azimuth Distance (km) Brightness Sun altitude
Rises 21:57:42 0° 346° (NNW) 2,940 8.8 -16.5°
Reaches altitude 10° 21:59:59 10° 344° (NNW) 2,026 7.5 -16.6°
Maximum altitude 22:04:25 62° 264° (W) 713 3.9 -16.9°
Enters shadow 22:06:35 29° 193° (SSW) 1,169 4.5 -17.0°
